Regional Weather Roundup
Issued by NWS

Home | Current Version | Previous Version | Text Only | Print | Product List | Glossary Off
Versions: 1 2 3 4 5 6 7 8 9 10 11 12 13 14 15 16 17 18 19 20 21 22 23 24 25 26 27 28 29 30 31 32 33 34 35 36 37 38 39 40 41 42 43 44 45 46 47 48 49 50

000
ASUS43 KMKX 130020
RWRWI

WISCONSIN REGIONAL WEATHER ROUNDUP
NATIONAL WEATHER SERVICE MILWAUKEE/SULLIVAN WI
600 PM CST TUE DEC 12 2017

NOTE: "FAIR" INDICATES FEW OR NO CLOUDS BELOW 12,000 FEET WITH NO
SIGNIFICANT WEATHER AND/OR OBSTRUCTIONS TO VISIBILITY.

WIZ001-002-006>008-014>016-023>028-130100-
NORTHWEST WISCONSIN

CITY           SKY/WX    TMP DP  RH WIND       PRES   REMARKS
SUPERIOR ARPT  LGT SNOW  14  10  81 S5        29.91F WCI   7
6HR MIN TEMP:  10; 6HR MAX TEMP:  15;

ASHLAND        CLOUDY    13   3  64 S5        29.91F WCI   5
6HR MIN TEMP:  10; 6HR MAX TEMP:  13;

HAYWARD        LGT SNOW  12   5  73 S7        29.88F WCI   1
6HR MIN TEMP:   9; 6HR MAX TEMP:  13; 6HR PCP: TRACE;

SIREN          CLOUDY    14   9  81 S6        29.90S WCI   5
6HR MIN TEMP:  10; 6HR MAX TEMP:  15;

CUMBERLAND     LGT SNOW  12   7  79 S8        29.88F WCI   1
RICE LAKE      FLURRIES  13   7  76 S5        29.92F WCI   6
6HR MIN TEMP:  11; 6HR MAX TEMP:  14;

CHETEK         CLOUDY    13   6  73 S6        29.91F WCI   4
6HR MIN TEMP:  10; 6HR MAX TEMP:  13;

LADYSMITH      FLURRIES  14   3  62 S3        29.92F
6HR MIN TEMP:  11; 6HR MAX TEMP:  15;

EAU CLAIRE     CLOUDY    15   6  67 S5        29.94F WCI   8
6HR MIN TEMP:  11; 6HR MAX TEMP:  15; 6HR PCP: TRACE;

MENOMONIE      FLURRIES  16   9  72 SE6       29.94F WCI   8
6HR MIN TEMP:  13; 6HR MAX TEMP:  17;

NEW RICHMOND   CLOUDY    16   9  74 S8        29.89F WCI   5
6HR MIN TEMP:  13; 6HR MAX TEMP:  16;

OSCEOLA        CLOUDY    17  11  77 SE8       29.92F WCI   6
6HR MIN TEMP:  11; 6HR MAX TEMP:  17;

$$

WIZ003>005-009-010-017-018-130100-
NORTH CENTRAL WISCONSIN

CITY           SKY/WX    TMP DP  RH WIND       PRES   REMARKS
MANITOWISH WTR CLOUDY     9   2  73 SW5       29.86F WCI   1
6HR MIN TEMP:   7; 6HR MAX TEMP:   9;

ARBOR VITAE    CLOUDY    11   4  72 CALM      29.86F
6HR MIN TEMP:   9; 6HR MAX TEMP:  11;

WOODRUFF       CLOUDY    11   4  72 CALM      29.86F
6HR MIN TEMP:   9; 6HR MAX TEMP:  11;

RHINELANDER    CLOUDY    10   2  69 CALM      29.87F
6HR MIN TEMP:   9; 6HR MAX TEMP:  13;

EAGLE RIVER    CLOUDY     7   0  73 CALM      29.86F
6HR MIN TEMP:   4; 6HR MAX TEMP:  11;

LAND O LAKES   MOCLDY     3   0  87 CALM      29.88F
6HR MIN TEMP:   2; 6HR MAX TEMP:  13;

PHILLIPS       CLOUDY    10  -1  61 S3        29.88F
6HR MIN TEMP:   7; 6HR MAX TEMP:  11;

TOMAHAWK       CLOUDY    11  -1  57 CALM      29.89F
6HR MIN TEMP:  10; 6HR MAX TEMP:  13;

MEDFORD        CLOUDY    11   0  60 SW6       29.89F WCI   1
6HR MIN TEMP:   9; 6HR MAX TEMP:  12;

MERRILL        CLOUDY    13  -1  54 SW3       29.92F
6HR MIN TEMP:  12; 6HR MAX TEMP:  15;

$$

WIZ029-030-035-036-043>047-130100-
CENTRAL WISCONSIN

CITY           SKY/WX    TMP DP  RH WIND       PRES   REMARKS
WAUSAU         CLOUDY    12   0  58 W7        29.92F WCI   1
6HR MIN TEMP:  11; 6HR MAX TEMP:  14;

MOSINEE        CLOUDY    12   1  62 W6        29.95S WCI   3
MARSHFIELD     CLOUDY    13   2  61 SW5       29.91F WCI   5
6HR MIN TEMP:   9; 6HR MAX TEMP:  13;

STEVENS POINT  CLOUDY    12  -2  54 CALM      29.96F
6HR MIN TEMP:  11; 6HR MAX TEMP:  13;

WAUPACA        CLOUDY    15   3  57 CALM      29.98F
6HR MIN TEMP:  14; 6HR MAX TEMP:  21;

WAUTOMA        CLOUDY    13   3  64 CALM      29.99S
6HR MIN TEMP:  11; 6HR MAX TEMP:  17;

WISC RAPIDS    CLOUDY    14   1  56 W3        29.97F
6HR MIN TEMP:  12; 6HR MAX TEMP:  15;

CAMP DOUGLAS   CLOUDY    18   1  49 SW5       29.97F WCI  11
$$

WIZ011>013-019>022-031-037>040-048>050-130100-
NORTHEAST WISCONSIN

CITY           SKY/WX    TMP DP  RH WIND       PRES   REMARKS
ANTIGO         CLOUDY    11   1  63 SW3       29.89F
6HR MIN TEMP:   8; 6HR MAX TEMP:  13;

SHAWANO        CLOUDY    17   4  56 W6        29.96F WCI   8
6HR MIN TEMP:  16; 6HR MAX TEMP:  20;

OCONTO         CLEAR      6   0  78 CALM      29.97F
6HR MIN TEMP:   5; 6HR MAX TEMP:  18;

STURGEON BAY   CLOUDY    16   5  62 NW6       29.96S WCI   7
6HR MIN TEMP:  15; 6HR MAX TEMP:  16; 6HR PCP: TRACE;

GREEN BAY      PTCLDY    13   2  61 SW3       29.97F
6HR MIN TEMP:  11; 6HR MAX TEMP:  20; 6HR PCP: TRACE;

MANITOWOC      CLEAR      8  -1  66 CALM      29.98F
6HR MIN TEMP:   8; 6HR MAX TEMP:  19; 6HR PCP: TRACE;

APPLETON       MOCLDY    12   0  57 W9        29.95F WCI   0
CLINTONVILLE   NOT AVBL
OSHKOSH        CLOUDY    14   0  53 NW6       29.97F WCI   5
6HR MIN TEMP:  14; 6HR MAX TEMP:  19;

$$

WIZ032>034-041-042-053>061-130100-
SOUTHWEST WISCONSIN

CITY           SKY/WX    TMP DP  RH WIND       PRES   REMARKS
LA CROSSE      CLOUDY    21   6  52 S5        29.99F WCI  15
6HR MIN TEMP:  19; 6HR MAX TEMP:  22;

SPARTA         CLOUDY    18   5  58 CALM      29.99F
6HR MIN TEMP:  16; 6HR MAX TEMP:  18;

VIROQUA        CLOUDY    18   8  65 SW3       29.95F
6HR MIN TEMP:  16; 6HR MAX TEMP:  18;

BOSCOBEL       CLOUDY    22   6  50 CALM      30.02F
6HR MIN TEMP:  20; 6HR MAX TEMP:  22;

PRAIRIE DU CHI CLOUDY    24   8  50 CALM      30.01F
6HR MIN TEMP:  20; 6HR MAX TEMP:  24;

PLATTEVILLE    CLOUDY    22   9  58 SW6       30.00F WCI  14
6HR MIN TEMP:  20; 6HR MAX TEMP:  23;

$$

WIZ056-057-062-063-064-067-068-130100-
SOUTH CENTRAL WISCONSIN

CITY           SKY/WX    TMP DP  RH WIND       PRES   REMARKS
REEDSBURG      CLOUDY    18   2  48 W6        29.98F WCI  10
6HR MIN TEMP:  17; 6HR MAX TEMP:  19;

BARABOO/DELLS  CLOUDY    17   1  50 CALM      29.97F
6HR MIN TEMP:  15; 6HR MAX TEMP:  21;

LONE ROCK      CLOUDY    19   7  59 CALM      30.01F
6HR MIN TEMP:  18; 6HR MAX TEMP:  20;

MINERAL POINT  CLOUDY    23   7  50 W6        29.97F WCI  16
MADISON        CLOUDY    17   1  49 W5        29.99F WCI  10
6HR MIN TEMP:  16; 6HR MAX TEMP:  21;

MIDDLETON      CLOUDY    20   2  46 W5        29.99F WCI  13
6HR MIN TEMP:  18; 6HR MAX TEMP:  23;

WATERTOWN      PTCLDY    15   2  56 CALM      29.99S
6HR MIN TEMP:  14; 6HR MAX TEMP:  19;

MONROE         CLOUDY    21   1  42 W5        29.99S WCI  15
JANESVILLE     MOCLDY    19   0  42 W6        30.01S WCI  11
$$

WIZ051-052-058>065-066-070>072-130100-
SOUTHEAST WISCONSIN

CITY           SKY/WX    TMP DP  RH WIND       PRES   REMARKS
MILWAUKEE      PTCLDY    19   4  51 NW6       29.99F WCI  11
6HR MIN TEMP:  19; 6HR MAX TEMP:  21;

WAUKESHA       CLEAR     14   1  57 W9        29.99S WCI   2
MILWAUKEE/TIMM PTCLDY    16   0  48 NW8       30.00S WCI   5
RACINE         CLEAR     16   3  56 CALM      30.01F
6HR MIN TEMP:  16; 6HR MAX TEMP:  21;

BURLINGTON       N/A    N/A N/A N/A MISG        N/A
KENOSHA        PTCLDY    16   3  56 W6        29.99F WCI   7
6HR MIN TEMP:  14; 6HR MAX TEMP:  22;

FOND DU LAC    CLOUDY    15  -1  49 NW5       29.99S WCI   8
6HR MIN TEMP:  14; 6HR MAX TEMP:  19;

SHEBOYGAN      CLEAR     14   4  64 NW3       29.97S
6HR MIN TEMP:  14; 6HR MAX TEMP:  19; 6HR PCP: TRACE;

WEST BEND      CLOUDY    16   1  53 W10       29.97S WCI   3
JUNEAU         PTCLDY    12   0  59 CALM      30.00R
6HR MIN TEMP:  12; 6HR MAX TEMP:  17;

$$

LSZ147-162-130100-
LAKE SUPERIOR

STATION/POSITION TIME  TEMP    WIND        PRES    WAVE
                       AIR SEA DIR/SP/G            HT/PER
                 (UTC) (F)     (DEG/KT/KT) (MB)    (FT/S)
DEVILS ISLAND    0000   16     180/  6/  7 1014.1F
SAXON HARBOR     2330   13                 1013.2F
$$

LMZ867-665-643>646-130100-
LAKE MICHIGAN

STATION/POSITION TIME  TEMP    WIND        PRES    WAVE
                       AIR SEA DIR/SP/G            HT/PER
                 (UTC) (F)     (DEG/KT/KT) (MB)    (FT/S)
NORTHPORT PIER   2337   18     300/  8/ 19 1014.2F
KEWAUNEE LAKESHO 2354   14     290/  4/  6


USA.gov is the U.S. government's official web portal to all federal, state and local government web resources and services.